Collegeville, MN

11:58 PM CDT on April 26, 2015 (GMT -0500)
Saint Johns University Campus | | Change Station
CLOSE
Current Station
Personal Weather Station
Location: Collegeville, MN
Elevation: 1200 ft
Nearby Weather Stations

Elev 1200 ft 45.58 °N, 94.39 °W | Updated 10 seconds ago

Clear
Clear
47.9 °F
Feels Like 48 °F
N
0.0
Wind Variable Wind from ENE
Gusts 0.0 mph

Today
High -- | Low -- °F
--% Chance of Precip.
Yesterday
High -- | Low -- °F
Precip. -- in
6:13 AM 8:17 PM
First Quarter, 61% visible
Pressure 30.21 in
Visibility 10.0 miles
Clouds Clear
Windchill 48 °F
Dew Point 24 °F
Humidity 39%
Rainfall 0.00 in
Snow Depth Not available.
UV 0.0 out of 12
Pollen 10.40 out of 12
Air Quality Not available.
Flu Activity Local Activity
METAR KSTC 270453Z AUTO 00000KT 10SM CLR 03/M04 A3016 RMK AO2 SLP229 T00331044 TSNO

More Conditions Fewer Conditions

Pressure 30.21 in
Visibility 10.0 miles
Clouds Clear
Windchill 48 °F
Dew Point 24 °F
Humidity 39%
Rainfall 0.00 in
Snow Depth Not available.
UV 0.0 out of 12
Pollen 10.40 out of 12
Air Quality Not available.
Flu Activity Local Activity
METAR KSTC 270453Z AUTO 00000KT 10SM CLR 03/M04 A3016 RMK AO2 SLP229 T00331044 TSNO

More Conditions Fewer Conditions

The full scope of the disaster following a powerful 7.8-magnitude earthquake in Nepal may not come into view for days, but global charities are already sending emergency aid. Click to see how you can help.

10-Day Weather Forecast

Almanac

Astronomy

Apr. 26, 2015 Rise Set
Actual Time
Civil Twilight
Nautical Twilight
Astronomical Twilight
Moon
Length of Visible Light
Length of Day
Tomorrow will be .
, % of the Moon is Illuminated

Today's Extremes

State Highs State Lows

Community

WunderPhotos

Upload Photos

1,817,264 photos uploaded!

WunderBlogs® & News

Nearby

Air Quality

  Air Quality AQ Index Pollutant
Not available.

Snow Depth

Station Depth Elevation

Earthquake Activity

City Distance Mag. Time & Date
Minimum magnitude displayed is 2.5.

Coastal Water Temperatures

Place Temperature

Stations

Nearby Weather Stations

Station Location Temp. Windchill Dew Point Humidity Wind Precip. Elev Updated Type